EW6553 Weather Reports


Display with metric or nautical units.
time (UTC)temp
F
wind
direction
speed
MPH
gust
MPH
rain 1hr
in
rain 24hr
in
rain mn
in
humidity
%
barometer
mb
20260906224702 98 162 2.0 6.0 0.00 0.00 0.00 43 1010.7
20260906224653 98 164 1.0 5.0 0.00 0.00 0.00 43 1010.6
20260906223701 98 115 1.0 4.0 0.00 0.00 0.00 45 1010.8
20260906223203 97 148 1.0 4.0 0.00 0.00 0.00 44 1010.9
20260906222701 98 101 1.0 5.0 0.00 0.00 0.00 44 1010.8
20260906222204 99 168 1.0 5.0 0.00 0.00 0.00 44 1010.9
20260906221702 98 92 1.0 7.0 0.00 0.00 0.00 45 1010.9
20260906221201 97 84 2.0 7.0 0.00 0.00 0.00 45 1011.0
20260906220702 98 94 2.0 8.0 0.00 0.00 0.00 44 1011.0
20260906220429 99 94 2.0 8.0 0.00 0.00 0.00 44 1011.1
20260906215701 100 153 2.0 6.0 0.00 0.00 0.00 46 1010.9
20260906215654 101 64 2.0 6.0 0.00 0.00 0.00 43 1011.0
20260906214702 99 163 2.0 5.0 0.00 0.00 0.00 43 1011.0
20260906214201 99 130 2.0 6.0 0.00 0.00 0.00 42 1011.2
20260906213701 99 153 2.0 6.0 0.00 0.00 0.00 43 1011.4
20260906213201 98 154 1.0 3.0 0.00 0.00 0.00 45 1011.4
20260906212701 98 86 1.0 4.0 0.00 0.00 0.00 46 1011.5
20260906212201 98 82 1.0 4.0 0.00 0.00 0.00 46 1011.5
20260906211927 97 77 1.0 4.0 0.00 0.00 0.00 46 1011.6
20260906211200 99 171 2.0 8.0 0.00 0.00 0.00 43 1011.7
20260906210701 100 142 2.0 8.0 0.00 0.00 0.00 45 1011.7
20260906210201 99 348 2.0 5.0 0.00 0.00 0.00 46 1011.7
20260906205700 97 172 2.0 6.0 0.00 0.00 0.00 45 1011.8
20260906205159 98 82 2.0 6.0 0.00 0.00 0.00 44 1011.8
20260906204659 100 156 2.0 4.0 0.00 0.00 0.00 43 1012.0
20260906204158 99 123 2.0 4.0 0.00 0.00 0.00 43 1012.0
20260906203657 100 55 1.0 5.0 0.00 0.00 0.00 43 1012.1
20260906203158 99 170 2.0 7.0 0.00 0.00 0.00 46 1012.1
20260906202655 98 154 1.0 7.0 0.00 0.00 0.00 44 1012.1
20260906202154 98 101 1.0 4.0 0.00 0.00 0.00 42 1012.2
20260906201922 99 92 2.0 5.0 0.00 0.00 0.00 46 1012.3
20260906201150 99 107 2.0 8.0 0.00 0.00 0.00 45 1012.3
20260906200649 99 128 2.0 8.0 0.00 0.00 0.00 43 1012.4
20260906200149 99 171 2.0 8.0 0.00 0.00 0.00 42 1012.3
20260906195648 98 116 2.0 8.0 0.00 0.00 0.00 46 1012.3
20260906195415 98 168 2.0 5.0 0.00 0.00 0.00 47 1012.4
20260906194649 98 101 2.0 12.0 0.00 0.00 0.00 46 1012.4
20260906194146 99 166 2.0 12.0 0.00 0.00 0.00 44 1012.5
20260906193643 99 121 2.0 6.0 0.00 0.00 0.00 45 1012.5
20260906193409 98 65 2.0 6.0 0.00 0.00 0.00 45 1012.6
20260906192638 98 177 2.0 6.0 0.00 0.00 0.00 47 1012.6
20260906192138 98 161 2.0 6.0 0.00 0.00 0.00 45 1012.7
20260906191636 98 219 2.0 5.0 0.00 0.00 0.00 48 1012.7
20260906191131 98 107 2.0 9.0 0.00 0.00 0.00 49 1012.9
20260906190630 96 173 2.0 9.0 0.00 0.00 0.00 48 1013.0
20260906190129 98 211 2.0 6.0 0.00 0.00 0.00 48 1013.0
20260906185853 98 78 2.0 6.0 0.00 0.00 0.00 48 1013.0
20260906185117 98 68 2.0 6.0 0.00 0.00 0.00 48 1013.0
20260906184611 97 202 2.0 6.0 0.00 0.00 0.00 48 1013.0
20260906184105 97 120 2.0 6.0 0.00 0.00 0.00 50 1013.0
20260906183833 97 44 2.0 8.0 0.00 0.00 0.00 52 1013.1
20260906183102 97 219 2.0 8.0 0.00 0.00 0.00 50 1013.2
20260906182835 97 173 2.0 5.0 0.00 0.00 0.00 49 1013.4
20260906182102 97 178 2.0 5.0 0.00 0.00 0.00 51 1013.4
20260906181601 97 94 2.0 5.0 0.00 0.00 0.00 50 1013.4
20260906181102 96 169 2.0 5.0 0.00 0.00 0.00 51 1013.5
20260906180827 96 83 2.0 6.0 0.00 0.00 0.00 52 1013.5
20260906180101 96 182 2.0 6.0 0.00 0.00 0.00 51 1013.6
20260906175602 96 205 2.0 6.0 0.00 0.00 0.00 52 1013.7
20260906175100 96 115 2.0 6.0 0.00 0.00 0.00 49 1013.8
20260906174601 96 148 2.0 7.0 0.00 0.00 0.00 50 1014.0
20260906174326 95 165 2.0 9.0 0.00 0.00 0.00 50 1014.0
20260906173601 96 135 2.0 9.0 0.00 0.00 0.00 52 1014.0
20260906173101 96 78 2.0 9.0 0.00 0.00 0.00 54 1014.2
20260906172825 96 177 2.0 7.0 0.00 0.00 0.00 53 1014.3
20260906172102 95 162 2.0 7.0 0.00 0.00 0.00 52 1014.3
20260906171601 95 182 2.0 7.0 0.00 0.00 0.00 53 1014.3
20260906171057 94 121 2.0 7.0 0.00 0.00 0.00 55 1014.4
20260906170551 94 172 2.0 7.0 0.00 0.00 0.00 54 1014.5
20260906170046 94 128 2.0 4.0 0.00 0.00 0.00 54 1014.5
20260906165807 94 133 1.0 4.0 0.00 0.00 0.00 54 1014.6
20260906165033 94 198 1.0 4.0 0.00 0.00 0.00 56 1014.6
20260906164757 94 182 1.0 4.0 0.00 0.00 0.00 56 1014.7
20260906164032 93 165 1.0 5.0 0.00 0.00 0.00 55 1014.7
20260906163532 93 152 1.0 5.0 0.00 0.00 0.00 57 1014.7
20260906163031 92 161 1.0 4.0 0.00 0.00 0.00 58 1014.7
20260906162531 92 157 1.0 4.0 0.00 0.00 0.00 58 1014.7
20260906162032 92 155 1.0 5.0 0.00 0.00 0.00 57 1014.7
20260906161530 92 198 1.0 5.0 0.00 0.00 0.00 58 1014.7
20260906161030 92 189 2.0 9.0 0.00 0.00 0.00 62 1014.7
20260906160531 91 209 2.0 9.0 0.00 0.00 0.00 61 1014.7
20260906160305 91 165 1.0 5.0 0.00 0.00 0.00 61 1014.6
20260906155532 91 146 1.0 3.0 0.00 0.00 0.00 63 1014.8
20260906155301 90 148 1.0 4.0 0.00 0.00 0.00 62 1014.8
20260906154534 90 88 1.0 4.0 0.00 0.00 0.00 64 1014.7
20260906154032 89 87 1.0 4.0 0.00 0.00 0.00 64 1014.7
20260906153529 89 76 2.0 4.0 0.00 0.00 0.00 66 1014.7
20260906153030 88 167 1.0 4.0 0.00 0.00 0.00 66 1014.6
20260906152757 88 168 1.0 2.0 0.00 0.00 0.00 68 1014.6
20260906152032 88 168 1.0 4.0 0.00 0.00 0.00 68 1014.5
20260906151529 87 168 1.0 4.0 0.00 0.00 0.00 69 1014.4
20260906151029 87 169 1.0 4.0 0.00 0.00 0.00 69 1014.4
20260906150529 87 171 1.0 4.0 0.00 0.00 0.00 70 1014.5
20260906150029 86 157 1.0 4.0 0.00 0.00 0.00 71 1014.3
20260906145529 86 156 1.0 4.0 0.00 0.00 0.00 72 1014.3
20260906145029 85 160 1.0 2.0 0.00 0.00 0.00 72 1014.3
20260906144529 85 161 1.0 4.0 0.00 0.00 0.00 73 1014.3
20260906144029 85 161 0.0 4.0 0.00 0.00 0.00 73 1014.3
20260906143532 84 161 0.0 2.0 0.00 0.00 0.00 73 1014.3
20260906143032 84 161 0.0 2.0 0.00 0.00 0.00 74 1014.4
20260906142532 83 161 1.0 2.0 0.00 0.00 0.00 75 1014.5
20260906142034 83 161 1.0 2.0 0.00 0.00 0.00 75 1014.4
20260906141533 83 184 1.0 3.0 0.00 0.00 0.00 76 1014.4
20260906141032 83 185 1.0 3.0 0.00 0.00 0.00 76 1014.3
20260906140758 82 185 0.0 2.0 0.00 0.00 0.00 77 1014.3
20260906140033 82 185 0.0 2.0 0.00 0.00 0.00 78 1014.3
20260906135527 81 185 0.0 2.0 0.00 0.00 0.00 78 1014.3
20260906135025 81 185 0.0 2.0 0.00 0.00 0.00 79 1014.4
20260906134524 80 185 0.0 2.0 0.00 0.00 0.00 80 1014.2
20260906134023 80 185 0.0 1.0 0.00 0.00 0.00 82 1014.2
20260906133523 80 185 0.0 2.0 0.00 0.00 0.00 84 1014.2
20260906133025 80 185 0.0 2.0 0.00 0.00 0.00 85 1014.3
20260906132520 80 185 0.0 2.0 0.00 0.00 0.00 85 1014.3
20260906132020 80 198 0.0 2.0 0.00 0.00 0.00 86 1014.2
20260906131520 79 198 0.0 1.0 0.00 0.00 0.00 86 1014.3
20260906131019 79 198 0.0 1.0 0.00 0.00 0.00 85 1014.2
20260906130517 79 198 0.0 1.0 0.00 0.00 0.00 85 1014.3
20260906130018 79 198 0.0 0.0 0.00 0.00 0.00 84 1014.2
20260906125517 78 198 0.0 0.0 0.00 0.00 0.00 85 1014.1
20260906125017 78 198 0.0 0.0 0.00 0.00 0.00 86 1014.0
20260906124516 77 198 0.0 0.0 0.00 0.00 0.00 86 1014.0
20260906124017 76 198 0.0 0.0 0.00 0.00 0.00 86 1013.9
20260906123518 76 198 0.0 0.0 0.00 0.00 0.00 86 1013.9
20260906123017 76 198 0.0 0.0 0.00 0.00 0.00 85 1013.9
20260906122737 76 198 0.0 0.0 0.00 0.00 0.00 85 1013.8
20260906122017 76 198 0.0 0.0 0.00 0.00 0.00 85 1013.8
20260906121517 76 198 0.0 0.0 0.00 0.00 0.00 85 1013.7
20260906121017 76 198 0.0 0.0 0.00 0.00 0.00 85 1013.7
20260906120515 77 198 0.0 0.0 0.00 0.00 0.00 84 1013.6
20260906120230 77 198 0.0 0.0 0.00 0.00 0.00 84 1013.7
20260906115511 77 198 0.0 0.0 0.00 0.00 0.00 84 1013.6
20260906115011 77 198 0.0 0.0 0.00 0.00 0.00 84 1013.6
20260906114511 77 198 0.0 0.0 0.00 0.00 0.00 83 1013.5
20260906114011 77 198 0.0 0.0 0.00 0.00 0.00 83 1013.4
20260906113510 77 198 0.0 0.0 0.00 0.00 0.00 83 1013.5
20260906113236 77 198 0.0 0.0 0.00 0.00 0.00 82 1013.5
20260906112730 78 198 0.0 0.0 0.00 0.00 0.00 82 1013.4
20260906112011 78 198 0.0 0.0 0.00 0.00 0.00 83 1013.2
20260906111507 78 198 0.0 0.0 0.00 0.00 0.00 82 1013.2
20260906111444 78 198 0.0 0.0 0.00 0.00 0.00 83 1013.1
20260906111207 78 198 0.0 0.0 0.00 0.00 0.00 83 1013.1
20260906110006 78 198 0.0 0.0 0.00 0.00 0.00 83 1013.1
20260906105506 78 198 0.0 0.0 0.00 0.00 0.00 83 1013.1
20260906105007 78 198 0.0 0.0 0.00 0.00 0.00 83 1013.1
20260906104507 78 198 0.0 0.0 0.00 0.00 0.00 83 1013.0
20260906104238 78 198 0.0 0.0 0.00 0.00 0.00 83 1013.1
20260906103735 78 198 0.0 0.0 0.00 0.00 0.00 82 1013.2
20260906103004 78 198 0.0 0.0 0.00 0.00 0.00 82 1013.1
20260906102458 78 198 0.0 0.0 0.00 0.00 0.00 82 1012.9
20260906101956 78 198 0.0 0.0 0.00 0.00 0.00 81 1012.8
20260906101454 78 198 0.0 0.0 0.00 0.00 0.00 81 1012.8
20260906100952 78 198 0.0 0.0 0.00 0.00 0.00 81 1012.9
20260906100450 78 198 0.0 0.0 0.00 0.00 0.00 81 1012.8
20260906100216 78 198 0.0 0.0 0.00 0.00 0.00 80 1012.7
20260906095721 79 198 0.0 0.0 0.00 0.00 0.00 80 1012.7
20260906094944 79 198 0.0 0.0 0.00 0.00 0.00 79 1012.7
20260906094443 79 198 0.0 0.0 0.00 0.00 0.00 79 1012.6
20260906093941 80 198 0.0 1.0 0.00 0.00 0.00 78 1012.5
20260906093439 80 198 0.0 1.0 0.00 0.00 0.00 77 1012.5
20260906092936 80 198 0.0 2.0 0.00 0.00 0.00 77 1012.4
20260906092435 80 198 0.0 2.0 0.00 0.00 0.00 76 1012.3
20260906091933 80 198 0.0 2.0 0.00 0.00 0.00 76 1012.4
20260906091433 81 198 0.0 2.0 0.00 0.00 0.00 76 1012.4
20260906090930 81 198 0.0 2.0 0.00 0.00 0.00 75 1012.3
20260906090439 81 198 1.0 2.0 0.00 0.00 0.00 75 1012.3
20260906085930 81 198 0.0 2.0 0.00 0.00 0.00 75 1012.4
20260906085431 81 198 0.0 2.0 0.00 0.00 0.00 75 1012.3
20260906084930 81 198 0.0 2.0 0.00 0.00 0.00 75 1012.4
20260906084430 81 198 1.0 2.0 0.00 0.00 0.00 75 1012.4
20260906083930 81 198 1.0 3.0 0.00 0.00 0.00 75 1012.4
20260906083430 81 198 2.0 4.0 0.00 0.00 0.00 75 1012.4
20260906082930 81 198 1.0 4.0 0.00 0.00 0.00 75 1012.3
20260906082429 81 196 1.0 2.0 0.00 0.00 0.00 74 1012.4
20260906082201 82 196 1.0 3.0 0.00 0.00 0.00 74 1012.4
20260906081429 82 196 1.0 3.0 0.00 0.00 0.00 74 1012.4
20260906081157 82 196 1.0 2.0 0.00 0.00 0.00 73 1012.5
20260906080429 82 196 1.0 4.0 0.00 0.00 0.00 73 1012.5
20260906075929 82 196 2.0 4.0 0.00 0.00 0.00 73 1012.4
20260906075429 82 196 2.0 4.0 0.00 0.00 0.00 73 1012.4
20260906074929 82 196 1.0 4.0 0.00 0.00 0.00 73 1012.5
20260906074429 83 191 0.0 4.0 0.00 0.00 0.00 73 1012.7
20260906073930 83 168 0.0 2.0 0.00 0.00 0.00 73 1012.7
20260906073428 83 168 1.0 3.0 0.00 0.00 0.00 72 1012.7
20260906072929 83 168 1.0 6.0 0.00 0.00 0.00 72 1012.8
20260906072656 83 159 1.0 6.0 0.00 0.00 0.00 72 1012.7
20260906071935 83 169 1.0 4.0 0.00 0.00 0.00 72 1012.6
20260906071429 83 169 1.0 4.0 0.00 0.00 0.00 72 1012.8
20260906071149 83 163 1.0 4.0 0.00 0.00 0.00 71 1012.8
20260906070415 84 210 1.0 4.0 0.00 0.00 0.00 71 1012.8
20260906065908 84 210 2.0 4.0 0.00 0.00 0.00 71 1012.7
20260906065407 84 202 2.0 3.0 0.00 0.00 0.00 71 1012.7
20260906065127 84 197 2.0 4.0 0.00 0.00 0.00 70 1012.8
20260906064353 84 200 2.0 5.0 0.00 0.00 0.00 70 1012.9
20260906063847 84 187 2.0 5.0 0.00 0.00 0.00 70 1012.8
20260906063341 84 184 2.0 3.0 0.00 0.00 0.00 70 1012.8
20260906062836 84 193 2.0 4.0 0.00 0.00 0.00 70 1012.8
20260906062335 84 193 2.0 5.0 0.00 0.00 0.00 70 1012.8
20260906061834 84 209 1.0 5.0 0.00 0.00 0.00 70 1012.9
20260906061334 84 186 1.0 2.0 0.00 0.00 0.00 70 1012.8
20260906060834 84 186 1.0 2.0 0.00 0.00 0.00 70 1012.9
20260906060334 84 186 1.0 2.0 0.00 0.00 0.00 71 1013.0
20260906055834 84 186 1.0 3.0 0.00 0.00 0.00 70 1013.0
20260906055332 84 187 1.0 3.0 0.00 0.00 0.00 70 1012.9
20260906054832 84 189 1.0 4.0 0.00 0.00 0.00 70 1012.9
20260906054332 84 178 1.0 4.0 0.00 0.00 0.00 70 1012.9
20260906053830 84 154 1.0 2.0 0.00 0.00 0.00 70 1012.8
20260906053331 83 154 1.0 2.0 0.00 0.00 0.00 70 1012.8
20260906052830 84 154 1.0 2.0 0.00 0.00 0.00 69 1012.9
20260906052330 84 154 0.0 2.0 0.00 0.00 0.00 68 1012.8
20260906051831 85 154 0.0 2.0 0.00 0.00 0.00 68 1012.9
20260906051330 85 154 0.0 2.0 0.00 0.00 0.00 67 1013.0
20260906050829 85 154 0.0 2.0 0.00 0.00 0.00 67 1013.0
20260906050329 85 154 0.0 2.0 0.00 0.00 0.00 66 1012.9
20260906050053 85 154 0.0 2.0 0.00 0.00 0.00 66 1013.0
20260906045321 85 154 1.0 2.0 0.00 0.00 0.00 66 1012.9
20260906044814 86 154 1.0 3.0 0.00 0.00 0.00 66 1012.9
20260906044308 86 154 1.0 3.0 0.00 0.00 0.00 65 1012.9
20260906043801 86 139 0.0 2.0 0.00 0.00 0.00 65 1012.9
20260906043302 86 165 1.0 5.0 0.00 0.00 0.00 65 1012.8
20260906042801 86 165 1.0 5.0 0.00 0.00 0.00 65 1012.8
20260906042532 86 178 1.0 3.0 0.00 0.00 0.00 65 1012.7
20260906041800 86 180 1.0 3.0 0.00 0.00 0.00 64 1012.5
20260906041528 86 181 1.0 4.0 0.00 0.00 0.00 64 1012.7
20260906040756 87 182 1.0 6.0 0.00 0.00 0.00 64 1012.7
20260906040527 87 213 1.0 6.0 0.00 0.00 0.00 63 1012.6
20260906035757 87 208 1.0 3.0 0.00 0.00 0.00 63 1012.7
20260906035257 87 211 2.0 5.0 0.00 0.00 0.00 63 1012.8
20260906034756 87 209 2.0 5.0 0.00 0.00 0.00 63 1012.7
20260906034254 87 198 2.0 5.0 0.00 0.00 0.00 62 1012.8
20260906033751 87 163 1.0 5.0 0.00 0.00 0.00 62 1012.9
20260906033252 87 205 1.0 4.0 0.00 0.00 0.00 62 1012.7
20260906032750 88 204 2.0 4.0 0.00 0.00 0.00 62 1012.8
20260906032250 88 161 1.0 5.0 0.00 0.00 0.00 61 1012.8
20260906032017 88 162 1.0 5.0 0.00 0.00 0.00 61 1012.8
20260906031516 88 159 1.0 5.0 0.00 0.00 0.00 61 1012.8
20260906030750 88 159 2.0 5.0 0.00 0.00 0.00 61 1012.7
20260906030244 88 161 2.0 4.0 0.00 0.00 0.00 60 1012.8
20260906030009 88 144 2.0 4.0 0.00 0.00 0.00 60 1012.8
20260906025718 88 141 2.0 7.0 0.00 0.00 0.00 60 1012.8
20260906024732 89 212 2.0 8.0 0.00 0.00 0.00 59 1012.7
20260906024232 89 150 2.0 9.0 0.00 0.00 0.00 59 1012.7
20260906023730 89 178 2.0 9.0 0.00 0.00 0.00 59 1012.6
20260906023230 89 142 2.0 8.0 0.00 0.00 0.00 58 1012.5
20260906022730 89 194 3.0 11.0 0.00 0.00 0.00 58 1012.4
20260906022228 89 198 3.0 11.0 0.00 0.00 0.00 58 1012.3
20260906021952 89 186 2.0 5.0 0.00 0.00 0.00 58 1012.3
20260906021228 90 211 2.0 6.0 0.00 0.00 0.00 57 1012.1
20260906020728 90 167 1.0 6.0 0.00 0.00 0.00 57 1012.0
20260906020229 90 174 1.0 4.0 0.00 0.00 0.00 57 1011.9
20260906015726 90 175 1.0 5.0 0.00 0.00 0.00 56 1011.9
20260906015226 90 171 2.0 7.0 0.00 0.00 0.00 56 1012.0
20260906014726 91 196 2.0 7.0 0.00 0.00 0.00 56 1011.9
20260906014226 91 202 2.0 6.0 0.00 0.00 0.00 55 1011.6
20260906013726 91 169 2.0 8.0 0.00 0.00 0.00 55 1011.5
20260906013225 91 185 3.0 8.0 0.00 0.00 0.00 54 1011.4
20260906012726 92 175 3.0 8.0 0.00 0.00 0.00 53 1011.3
20260906012226 92 189 3.0 8.0 0.00 0.00 0.00 53 1011.2
20260906011726 93 150 3.0 9.0 0.00 0.00 0.00 52 1011.0
20260906011222 93 118 2.0 9.0 0.00 0.00 0.00 50 1010.9
20260906010722 93 240 0.0 4.0 0.00 0.00 0.00 48 1010.8
20260906010222 93 117 0.0 2.0 0.00 0.00 0.00 47 1010.7
20260906005722 93 117 0.0 3.0 0.00 0.00 0.00 47 1010.7
20260906005222 93 116 1.0 3.0 0.00 0.00 0.00 47 1010.8
20260906004724 94 117 1.0 2.0 0.00 0.00 0.00 47 1010.7
20260906004224 94 116 1.0 2.0 0.00 0.00 0.00 46 1010.7
20260906003725 94 128 1.0 2.0 0.00 0.00 0.00 45 1010.8
20260906003451 94 118 1.0 3.0 0.00 0.00 0.00 45 1010.7
20260906002949 95 119 1.0 3.0 0.00 0.00 0.00 45 1010.7
20260906002221 95 133 1.0 3.0 0.00 0.00 0.00 44 1010.8
20260906001717 96 93 1.0 4.0 0.00 0.00 0.00 44 1010.8
20260906001218 96 84 1.0 5.0 0.00 0.00 0.00 44 1010.7
20260906000716 97 144 1.0 5.0 0.00 0.00 0.00 43 1010.6
20260906000214 97 168 1.0 4.0 0.00 0.00 0.00 42 1010.5
20260905235713 98 110 0.0 2.0 0.00 0.00 0.00 42 1010.5
20260905235653 98 110 1.0 3.0 0.00 0.00 0.00 42 1010.5
20260905234708 98 111 1.0 4.0 0.00 0.00 0.00 41 1010.5
20260905234208 98 94 1.0 4.0 0.00 0.00 0.00 41 1010.5
20260905233706 98 76 1.0 4.0 0.00 0.00 0.00 42 1010.5
20260905233206 98 99 1.0 4.0 0.00 0.00 0.00 42 1010.5
20260905232705 99 81 1.0 4.0 0.00 0.00 0.00 42 1010.5
20260905232206 99 82 1.0 4.0 0.00 0.00 0.00 44 1010.5
20260905231706 99 165 1.0 4.0 0.00 0.00 0.00 43 1010.5
20260905231211 98 166 1.0 4.0 0.00 0.00 0.00 44 1010.6
20260905230717 98 160 1.0 4.0 0.00 0.00 0.00 44 1010.5
20260905230209 98 162 1.0 4.0 0.00 0.00 0.00 45 1010.5
20260905225710 97 162 1.0 2.0 0.00 0.00 0.00 43 1010.5
20260905225203 97 163 1.0 4.0 0.00 0.00 0.00 43 1010.4